�N����,����,�~����,�C��,���x,�C��,����,���ϕ���,�ő�u�ԕ���,�ő厞����,���˗�,�I�_���x,�n�����x,�ő啗���N��,DTYPE
"16/12/13","00:10",0.0,6.2,87.6,1017.1,293.2,2.0,2.4,307.9,0.00,4.3,9.2,"00:00:24",1
"16/12/13","00:20",0.0,6.2,87.0,1017.3,286.3,2.1,2.4,276.4,0.00,4.2,9.2,"00:11:52",1
"16/12/13","00:30",0.0,6.2,85.9,1017.3,298.1,2.2,2.8,309.5,0.00,4.1,9.4,"00:26:56",1
"16/12/13","00:40",0.0,6.3,86.1,1017.1,307.3,2.2,3.1,321.6,0.00,4.2,9.3,"00:30:32",1
"16/12/13","00:50",0.0,6.3,87.7,1016.8,302.2,2.1,2.5,313.4,0.00,4.5,9.0,"00:40:16",1
"16/12/13","01:00",0.0,6.2,88.3,1016.8,292.7,2.0,2.0,296.2,0.00,4.5,9.2,"00:50:16",1
"16/12/13","01:10",0.0,6.2,88.1,1016.6,291.5,2.1,2.4,307.0,0.00,4.4,9.2,"01:08:32",1
"16/12/13","01:20",0.0,6.3,88.3,1016.6,280.6,1.8,2.5,314.2,0.00,4.6,9.0,"01:10:32",1
"16/12/13","01:30",0.0,6.3,88.4,1016.4,287.0,1.3,1.9,287.2,0.00,4.6,9.1,"01:29:52",1
"16/12/13","01:40",0.0,6.4,88.7,1016.1,301.7,2.2,2.9,314.4,0.00,4.7,9.2,"01:30:56",1
"16/12/13","01:50",0.0,6.4,89.2,1016.4,311.7,2.5,3.6,318.7,0.00,4.8,9.2,"01:43:20",1
"16/12/13","02:00",0.0,6.3,90.2,1016.6,296.0,2.1,2.5,310.6,0.00,4.9,9.2,"01:50:24",1
"16/12/13","02:10",0.0,6.3,91.0,1015.9,296.3,1.8,2.6,310.9,0.00,5.0,9.2,"02:00:32",1
"16/12/13","02:20",0.0,6.3,91.6,1015.9,308.3,2.6,2.8,313.6,0.00,5.1,9.2,"02:14:40",1
"16/12/13","02:30",0.0,6.3,91.8,1016.1,292.0,2.0,2.6,310.5,0.00,5.1,9.2,"02:20:40",1
"16/12/13","02:40",0.0,6.4,92.1,1015.6,282.5,1.6,2.2,281.8,0.00,5.3,9.2,"02:31:26",1
"16/12/13","02:50",0.0,6.3,92.4,1015.6,301.4,1.8,2.6,308.3,0.00,5.2,9.2,"02:48:00",1
"16/12/13","03:00",0.0,6.4,92.8,1015.6,316.4,2.3,3.3,322.6,0.00,5.4,9.2,"02:51:28",1
"16/12/13","03:10",0.0,6.4,93.3,1015.4,302.1,1.8,2.4,309.0,0.00,5.4,9.1,"03:08:34",1
"16/12/13","03:20",0.2,6.4,93.7,1015.2,296.5,1.6,1.9,309.5,0.00,5.5,9.1,"03:10:40",1
"16/12/13","03:30",0.2,6.4,94.1,1015.2,299.6,2.0,2.5,311.5,0.00,5.6,9.2,"03:25:28",1
"16/12/13","03:40",0.0,6.4,94.7,1015.2,302.5,2.0,2.5,315.4,0.00,5.7,9.2,"03:32:48",1
"16/12/13","03:50",0.0,6.4,95.0,1015.2,301.9,1.8,2.7,318.4,0.00,5.7,9.1,"03:48:32",1
"16/12/13","04:00",0.2,6.4,95.4,1015.2,309.2,2.0,2.6,324.4,0.00,5.8,9.1,"03:51:28",1
"16/12/13","04:10",0.2,6.3,95.7,1015.4,295.8,1.6,2.1,317.8,0.00,5.7,9.2,"04:00:40",1
"16/12/13","04:20",0.4,6.3,96.1,1015.9,293.3,1.3,2.2,311.7,0.00,5.8,9.0,"04:11:12",1
"16/12/13","04:30",0.2,6.3,96.2,1015.6,311.2,0.6,1.7,311.8,0.00,5.8,9.2,"04:21:04",1
"16/12/13","04:40",0.0,6.2,96.5,1015.2,296.6,1.0,1.9,318.1,0.00,5.7,9.2,"04:33:20",1
"16/12/13","04:50",0.2,6.2,96.7,1014.9,293.9,1.1,1.9,312.2,0.00,5.8,9.2,"04:43:44",1
"16/12/13","05:00",0.0,6.1,96.9,1015.2,308.2,1.8,2.5,321.3,0.00,5.7,9.2,"04:51:42",1
"16/12/13","05:10",0.4,6.2,97.2,1015.2,279.4,1.2,1.8,305.0,0.00,5.8,9.2,"05:00:08",1
"16/12/13","05:20",0.2,6.3,97.4,1014.9,299.0,1.2,1.9,327.8,0.00,6.0,9.2,"05:16:46",1
"16/12/13","05:30",0.2,6.3,97.5,1014.9,307.8,1.2,1.9,321.2,0.00,6.0,9.1,"05:26:50",1
"16/12/13","05:40",0.6,6.3,97.7,1014.9,312.5,1.2,2.0,313.9,0.00,6.0,9.1,"05:35:28",1
"16/12/13","05:50",0.2,6.4,97.9,1014.9,295.9,0.8,1.3,325.9,0.00,6.1,9.2,"05:41:04",1
"16/12/13","06:00",0.2,6.4,98.0,1014.9,298.0,1.1,1.7,320.8,0.00,6.1,9.0,"05:55:20",1
"16/12/13","06:10",0.2,6.6,97.0,1014.9,311.7,1.0,1.4,326.3,0.00,6.2,9.2,"06:00:24",1
"16/12/13","06:20",0.2,6.5,98.0,1014.9,281.4,0.7,1.3,292.7,0.00,6.2,9.1,"06:11:36",1
"16/12/13","06:30",0.6,6.7,97.1,1015.2,305.4,0.8,2.0,322.3,0.00,6.3,9.1,"06:26:24",1
"16/12/13","06:40",0.2,6.5,98.0,1014.9,274.1,0.6,1.1,303.5,0.00,6.2,9.1,"06:33:52",1
"16/12/13","06:50",0.0,6.8,97.2,1015.2,281.4,0.3,0.9,287.4,0.00,6.4,9.2,"06:49:52",1
"16/12/13","07:00",0.2,6.6,98.1,1015.2,302.6,1.1,1.6,314.9,0.00,6.4,9.1,"06:52:16",1
"16/12/13","07:10",0.2,6.8,97.3,1014.9,274.0,0.8,1.0,271.9,0.00,6.4,9.2,"07:00:16",1
"16/12/13","07:20",0.2,6.7,98.3,1014.9,301.0,1.0,1.3,318.7,0.00,6.5,9.2,"07:16:32",1
"16/12/13","07:30",0.0,6.9,97.5,1014.9,304.8,1.1,1.6,314.1,0.00,6.6,9.2,"07:24:40",1
"16/12/13","07:40",0.0,6.9,98.4,1015.2,290.4,1.1,1.8,324.2,0.00,6.7,9.0,"07:31:44",1
"16/12/13","07:50",0.0,7.2,97.6,1015.2,287.3,0.8,1.0,303.7,0.00,6.9,9.2,"07:45:20",1
"16/12/13","08:00",0.0,7.0,98.5,1014.9,289.4,0.8,1.1,321.0,0.00,6.8,9.2,"07:51:52",1
"16/12/13","08:10",0.2,7.3,97.6,1015.4,289.3,1.1,1.6,312.6,0.00,7.0,9.2,"08:04:08",1
"16/12/13","08:20",0.0,7.2,98.5,1014.7,265.8,0.6,1.1,287.6,0.00,7.0,9.1,"08:10:16",1
"16/12/13","08:30",0.2,7.5,97.6,1014.9,283.0,0.6,1.1,274.3,0.00,7.2,9.3,"08:25:52",1
"16/12/13","08:40",0.0,7.3,98.5,1014.7,295.8,0.8,1.4,315.1,0.00,7.1,9.4,"08:32:32",1
"16/12/13","08:50",0.2,7.6,97.6,1014.7,293.1,0.7,1.4,309.8,0.00,7.3,9.4,"08:48:56",1
"16/12/13","09:00",0.2,7.4,98.4,1014.9,292.5,1.0,1.3,315.1,0.00,7.2,9.4,"08:52:16",1
"16/12/13","09:10",0.0,7.7,97.5,1014.9,291.1,1.2,1.6,306.2,0.00,7.4,9.3,"09:00:32",1
"16/12/13","09:20",0.0,7.5,98.5,1014.7,310.9,1.3,2.1,322.8,0.00,7.3,9.2,"09:15:44",1
"16/12/13","09:30",0.0,7.8,97.5,1014.7,299.6,1.2,1.8,329.8,0.00,7.5,9.3,"09:26:48",1
"16/12/13","09:40",0.0,7.7,98.3,1014.7,316.2,1.1,1.6,329.5,0.00,7.5,9.4,"09:32:16",1
"16/12/13","09:50",0.0,7.9,97.4,1014.7,314.0,1.1,1.8,324.0,0.01,7.6,9.2,"09:44:16",1
"16/12/13","10:00",0.0,7.8,98.2,1014.5,317.3,1.0,1.9,320.6,0.01,7.6,9.2,"09:50:08",1
"16/12/13","10:10",0.0,8.1,97.2,1014.2,322.0,1.2,1.7,328.7,0.01,7.7,9.5,"10:08:00",1
"16/12/13","10:20",0.0,7.9,97.9,1014.5,325.3,1.1,1.7,332.0,0.02,7.6,9.5,"10:15:12",1
"16/12/13","10:30",0.0,8.0,97.9,1013.8,321.0,1.1,1.7,323.0,0.03,7.7,9.7,"10:21:04",1
"16/12/13","10:40",0.0,8.1,97.9,1013.8,291.7,0.6,1.1,339.0,0.03,7.8,9.6,"10:30:08",1
"16/12/13","10:50",0.0,8.3,97.6,1013.8,286.0,0.8,1.1,303.4,0.05,8.0,9.6,"10:40:08",1
"16/12/13","11:00",0.0,8.5,97.0,1013.5,278.3,0.8,1.1,314.2,0.05,8.1,9.6,"10:50:24",1
"16/12/13","11:10",0.0,8.7,96.5,1013.3,274.9,0.7,1.1,244.5,0.07,8.2,9.7,"11:04:00",1
"16/12/13","11:20",0.0,8.8,95.7,1013.3,266.2,0.6,1.0,261.6,0.04,8.2,9.7,"11:16:48",1
"16/12/13","11:30",0.0,8.8,95.4,1012.8,291.6,0.3,0.8,285.7,0.01,8.1,9.6,"11:20:56",1
"16/12/13","11:40",0.0,8.7,95.3,1012.1,320.5,0.7,1.6,329.0,0.03,8.0,9.7,"11:39:20",1
"16/12/13","11:50",0.0,9.0,95.3,1012.1,317.6,1.2,1.6,311.1,0.05,8.3,9.8,"11:40:08",1
"16/12/13","12:00",0.0,9.1,95.0,1011.9,326.0,1.0,1.8,321.7,0.03,8.4,9.7,"11:54:16",1
"16/12/13","12:10",0.2,9.0,94.8,1011.2,308.3,1.1,1.6,323.3,0.02,8.3,10.1,"12:02:08",1
"16/12/13","12:20",0.0,9.1,94.8,1011.2,304.2,1.1,1.9,326.5,0.02,8.4,10.1,"12:19:52",1
"16/12/13","12:30",0.0,9.1,95.0,1011.2,295.8,1.3,1.7,303.5,0.03,8.4,10.0,"12:29:36",1
"16/12/13","12:40",0.2,9.0,95.2,1011.2,312.4,1.5,2.1,328.8,0.02,8.3,10.0,"12:34:32",1
"16/12/13","12:50",0.6,9.0,95.4,1010.7,315.9,1.5,2.0,308.4,0.02,8.3,10.1,"12:41:20",1
"16/12/13","13:00",1.2,8.9,95.6,1010.7,287.3,0.8,1.8,337.2,0.01,8.3,10.1,"12:51:12",1
"16/12/13","13:10",0.2,8.9,95.8,1010.0,303.1,1.0,1.4,308.6,0.03,8.3,10.0,"13:06:24",1
"16/12/13","13:20",0.4,8.9,95.8,1009.7,289.3,1.2,1.9,316.1,0.02,8.3,10.0,"13:13:04",1
"16/12/13","13:30",0.2,8.9,96.0,1009.7,294.7,1.1,1.4,299.6,0.01,8.3,10.1,"13:22:00",1
"16/12/13","13:40",0.2,9.0,96.4,1009.7,298.3,1.3,2.0,310.6,0.02,8.5,10.2,"13:39:52",1
"16/12/13","13:50",0.2,9.1,96.5,1009.5,301.4,1.2,1.9,293.9,0.03,8.6,10.2,"13:40:16",1
"16/12/13","14:00",0.2,9.0,96.6,1009.0,296.2,1.1,1.6,306.0,0.02,8.5,10.2,"13:56:32",1
"16/12/13","14:10",0.0,9.1,96.6,1009.3,291.8,0.8,1.2,311.1,0.01,8.6,10.2,"14:06:32",1
"16/12/13","14:20",0.2,9.1,96.6,1008.8,310.0,1.2,1.8,318.7,0.03,8.6,10.1,"14:13:12",1
"16/12/13","14:30",0.2,9.1,96.6,1008.8,273.3,0.7,1.2,250.4,0.00,8.6,10.2,"14:20:24",1
"16/12/13","14:40",0.0,9.1,96.7,1008.6,282.1,0.3,0.8,295.1,0.00,8.6,10.1,"14:30:56",1
"16/12/13","14:50",0.4,9.0,96.8,1008.6,272.3,0.5,0.9,259.3,0.00,8.6,10.2,"14:47:28",1
"16/12/13","15:00",0.4,9.0,97.0,1008.8,288.9,0.8,1.0,285.1,0.00,8.6,10.2,"14:51:36",1
"16/12/13","15:10",0.0,9.1,97.1,1008.3,309.8,1.1,1.7,323.6,0.00,8.7,10.3,"15:03:36",1
"16/12/13","15:20",0.4,9.1,97.2,1008.3,314.5,1.1,1.6,319.4,0.00,8.7,10.2,"15:19:12",1
"16/12/13","15:30",0.2,9.0,97.3,1008.3,320.7,1.1,1.6,323.2,0.00,8.6,10.2,"15:20:40",1
"16/12/13","15:40",0.0,8.9,97.6,1008.3,320.7,1.5,2.0,330.6,0.00,8.6,10.1,"15:37:12",1
"16/12/13","15:50",0.2,8.8,97.7,1008.3,333.0,1.0,2.2,345.4,0.00,8.5,10.2,"15:45:36",1
"16/12/13","16:00",0.0,8.9,97.9,1008.1,332.7,0.6,1.2,335.0,0.00,8.6,10.5,"15:50:08",1
"16/12/13","16:10",0.0,8.9,98.1,1007.6,307.3,1.1,1.4,316.2,0.00,8.7,10.1,"16:04:00",1
"16/12/13","16:20",0.2,9.1,97.2,1007.1,300.4,1.2,1.7,317.4,0.00,8.7,10.2,"16:10:16",1
"16/12/13","16:30",0.4,9.0,98.1,1007.4,289.3,1.1,1.7,317.1,0.00,8.8,10.0,"16:24:24",1
"16/12/13","16:40",0.2,9.1,97.2,1007.4,290.6,1.1,1.6,296.1,0.00,8.7,10.0,"16:39:12",1
"16/12/13","16:50",0.2,8.9,98.1,1006.9,287.8,1.2,1.6,268.8,0.00,8.7,10.0,"16:45:12",1
"16/12/13","17:00",0.2,9.1,97.3,1006.7,295.5,1.1,1.3,301.7,0.00,8.7,10.1,"16:59:04",1
"16/12/13","17:10",0.2,8.8,98.2,1006.7,303.4,1.1,1.8,317.4,0.00,8.6,10.1,"17:08:24",1
"16/12/13","17:20",0.2,9.0,97.4,1006.4,304.9,1.1,1.8,319.4,0.00,8.7,10.1,"17:11:44",1
"16/12/13","17:30",0.0,8.8,98.3,1006.0,320.9,1.0,1.4,322.7,0.00,8.6,10.2,"17:27:04",1
"16/12/13","17:40",0.2,9.0,97.5,1006.0,313.3,0.6,1.2,316.8,0.00,8.7,10.2,"17:33:12",1
"16/12/13","17:50",0.4,8.8,98.4,1005.7,278.9,0.3,0.9,298.7,0.00,8.6,10.3,"17:40:08",1
"16/12/13","18:00",0.4,9.0,97.7,1005.2,0.1,0.2,1.1,80.7,0.00,8.7,9.8,"17:57:28",1
"16/12/13","18:10",0.4,8.7,98.5,1005.2,273.0,0.2,0.6,287.2,0.00,8.5,10.3,"18:03:12",1
"16/12/13","18:20",0.0,8.9,97.8,1004.8,275.5,0.6,1.2,303.8,0.00,8.6,10.0,"18:19:36",1
"16/12/13","18:30",0.2,8.8,98.7,1005.0,295.9,1.0,1.2,303.6,0.00,8.6,10.2,"18:20:24",1
"16/12/13","18:40",0.2,9.0,97.9,1004.8,301.2,1.0,1.2,315.7,0.00,8.7,10.1,"18:32:40",1
"16/12/13","18:50",0.4,8.8,98.7,1004.8,311.5,1.2,1.7,314.0,0.00,8.6,9.9,"18:48:56",1
"16/12/13","19:00",0.4,9.0,98.0,1004.8,295.8,1.0,1.7,318.0,0.00,8.7,10.1,"18:50:16",1
"16/12/13","19:10",0.2,9.0,97.8,1004.8,307.4,1.2,2.1,339.3,0.00,8.7,10.1,"19:09:56",1
"16/12/13","19:20",0.2,8.8,98.7,1004.3,323.7,1.1,1.9,320.2,0.00,8.6,9.9,"19:12:16",1
"16/12/13","19:30",0.6,9.0,98.0,1003.8,298.9,1.0,1.8,332.1,0.00,8.7,10.0,"19:20:08",1
"16/12/13","19:40",0.4,9.0,97.8,1003.6,284.4,1.0,1.4,304.6,0.00,8.7,10.2,"19:39:52",1
"16/12/13","19:50",0.8,8.8,98.7,1003.4,308.8,1.6,2.5,313.5,0.00,8.6,9.9,"19:49:52",1
"16/12/13","20:00",0.6,9.1,98.0,1002.6,304.6,1.6,2.2,315.0,0.00,8.8,10.0,"19:59:52",1
"16/12/13","20:10",0.2,9.1,97.9,1002.9,304.7,1.6,2.4,313.8,0.00,8.8,10.1,"20:07:28",1
"16/12/13","20:20",0.2,9.0,98.7,1002.6,312.7,2.2,3.4,330.1,0.00,8.8,10.1,"20:14:24",1
"16/12/13","20:30",0.2,9.3,97.9,1003.1,328.9,1.3,2.1,316.7,0.00,9.0,10.0,"20:20:40",1
"16/12/13","20:40",0.4,9.2,98.5,1002.6,309.8,1.5,2.6,330.1,0.00,9.0,10.1,"20:39:12",1
"16/12/13","20:50",0.4,9.3,97.6,1001.9,298.3,1.3,2.5,334.7,0.00,9.0,10.1,"20:40:40",1
"16/12/13","21:00",0.4,9.1,98.3,1002.2,301.7,1.2,2.4,323.2,0.00,8.9,9.8,"20:59:28",1
"16/12/13","21:10",0.8,9.3,97.5,1002.4,294.0,1.5,1.9,317.5,0.00,9.0,9.9,"21:01:04",1
"16/12/13","21:20",0.6,9.1,98.3,1001.7,275.0,1.1,1.7,246.9,0.00,8.9,9.9,"21:12:32",1
"16/12/13","21:30",0.6,9.3,97.4,1002.2,311.6,1.3,2.1,332.6,0.00,8.9,10.0,"21:26:08",1
"16/12/13","21:40",1.0,9.1,98.3,1001.7,298.8,1.2,1.9,315.9,0.00,8.9,9.8,"21:31:20",1
"16/12/13","21:50",1.0,9.3,97.5,1001.2,289.7,1.3,2.2,334.7,0.00,9.0,10.1,"21:49:52",1
"16/12/13","22:00",1.4,9.2,98.4,1000.8,326.6,2.3,3.4,330.7,0.00,9.0,10.0,"21:54:58",1
"16/12/13","22:10",1.6,9.6,97.7,1001.0,302.5,1.7,2.8,322.7,0.00,9.3,9.9,"22:01:12",1
"16/12/13","22:20",1.2,9.6,98.5,1000.5,304.7,2.2,4.2,321.3,0.00,9.4,10.0,"22:19:22",1
"16/12/13","22:30",1.2,10.2,97.5,1001.0,296.4,2.1,3.5,309.4,0.00,9.9,10.1,"22:22:10",1
"16/12/13","22:40",1.6,10.2,98.0,1000.5,315.4,2.1,3.1,316.9,0.00,9.9,9.8,"22:39:12",1
"16/12/13","22:50",1.2,10.6,96.8,1000.3,321.3,3.0,4.7,317.6,0.00,10.2,10.1,"22:41:20",1
"16/12/13","23:00",0.8,10.5,97.2,1000.3,302.0,2.0,3.9,314.4,0.00,10.1,10.1,"22:50:36",1
"16/12/13","23:10",0.6,10.7,97.0,1000.8,302.2,2.2,3.2,315.7,0.00,10.3,9.9,"23:00:50",1
"16/12/13","23:20",0.4,10.7,96.5,1000.8,314.6,1.8,2.8,341.8,0.00,10.2,10.0,"23:11:06",1
"16/12/13","23:30",0.4,10.6,96.4,1001.0,291.1,1.6,2.5,315.4,0.00,10.1,10.1,"23:23:58",1
"16/12/13","23:40",0.2,10.5,96.4,1000.5,319.0,1.5,2.8,332.7,0.00,10.0,9.9,"23:36:28",1
"16/12/13","23:50",0.2,10.5,96.4,1000.5,282.0,1.3,2.5,265.2,0.00,10.0,10.0,"23:43:18",1
"16/12/13","24:00",0.0,10.6,96.4,999.8,293.2,1.6,2.9,223.9,0.00,10.1,10.0,"23:54:56",1
